Santa Barbara, CA

6:20 AM PDT on June 18, 2018 (GMT -0700)
Santa Barbara Municipal

Weather History for KSBA - August, 2002

Change the Weather History Date:

Friday, August 16, 2002

  Actual Average Record
Temperature  
Mean Temperature 64 °F 66 °F  
Max Temperature 71 °F 74 °F 84 °F (1962)
Min Temperature 57 °F 58 °F 50 °F (1986)
Degree Days  
Heating Degree Days 2 1  
Month to date heating degree days 16  
Since 1 June heating degree days 133  
Since 1 July heating degree days 43  
Cooling Degree Days 0 2  
Month to date cooling degree days 32  
Year to date cooling degree days 104  
Since 1 June cooling degree days 90  
Growing Degree Days 14 (Base 50)    
Moisture  
Dew Point 57 °F    
Average Humidity 92    
Maximum Humidity 100    
Minimum Humidity 68    
Precipitation  
Precipitation 0.00 in 0.00 in 0.00 in (2018)
Month to date precipitation 0.05  
Year to date precipitation 12.13  
Sea Level Pressure  
Sea Level Pressure 29.93 in    
Wind  
Wind Speed 6 mph (ESE)    
Max Wind Speed 12 mph    
Max Gust Speed -    
Visibility 5 miles    
Events Fog    
T = Trace of Precipitation, MM = Missing Value Source: NWS Daily Summary

Daily Weather History Graph

Daily Weather History Graph

Search for Another Location

Airport or City:

Astronomy

Aug. 16, 2002 Rise Set
Actual Time 6:20 AM PDT 7:45 PM PDT
Civil Twilight 5:54 AM PDT 8:12 PM PDT
Nautical Twilight 5:22 AM PDT 8:43 PM PDT
Astronomical Twilight 4:49 AM PDT 9:16 PM PDT
Moon 3:10 PM PDT (8/16) 12:33 AM PDT (8/16)
Length of Visible Light 14h 17m
Length of Day
13h 24m
Waxing Gibbous, 65% of the Moon is Illuminated
Aug 16
Waxing Gibbous
Aug 22
Full
Aug 30
Last Quarter
Sep 6
New
Sep 13
First Quarter

Hourly Weather History & Observations

Time (PDT) Temp. Dew Point Humidity Pressure Visibility Wind Dir Wind Speed Gust Speed Precip Events Conditions
12:01 AM 57.2 °F 57.2 °F 100% 29.89 in 1.0 mi East 4.6 mph - N/A   Mist
12:18 AM 57.2 °F 57.2 °F 100% 29.89 in 0.8 mi East 5.8 mph - N/A   Mist
12:25 AM 57.2 °F 57.2 °F 100% 29.89 in 1.0 mi ESE 5.8 mph - N/A   Mist
12:33 AM 57.2 °F 57.2 °F 100% 29.90 in 0.8 mi ESE 5.8 mph - N/A   Mist
12:53 AM 57.0 °F 57.0 °F 100% 29.89 in 0.5 mi ESE 5.8 mph - N/A Fog Fog
1:53 AM 57.0 °F 57.0 °F 100% 29.89 in 0.5 mi ESE 4.6 mph - N/A Fog Fog
2:53 AM 57.0 °F 57.0 °F 100% 29.88 in 0.5 mi SE 4.6 mph - N/A Fog Fog
3:04 AM 57.2 °F 57.2 °F 100% 29.88 in 0.2 mi Calm Calm - N/A Fog Fog
3:33 AM 57.2 °F 57.2 °F 100% 29.88 in 0.5 mi Variable 3.5 mph - N/A Fog Fog
3:53 AM 57.0 °F 57.0 °F 100% 29.88 in 0.5 mi East 3.5 mph - N/A Fog Fog
4:26 AM 57.2 °F 57.2 °F 100% 29.89 in 1.2 mi East 6.9 mph - N/A   Overcast
4:44 AM 57.2 °F 57.2 °F 100% 29.89 in 3.0 mi East 6.9 mph - N/A   Overcast
4:53 AM 57.0 °F 55.9 °F 96% 29.90 in 3.0 mi ESE 6.9 mph - N/A   Overcast
5:13 AM 57.2 °F 57.2 °F 100% 29.90 in 2.0 mi East 6.9 mph - N/A   Overcast
5:46 AM 57.2 °F 57.2 °F 100% 29.92 in 3.0 mi East 6.9 mph - N/A   Overcast
5:53 AM 57.0 °F 57.0 °F 100% 29.92 in 1.0 mi East 6.9 mph - N/A   Overcast
6:53 AM 57.9 °F 57.0 °F 97% 29.95 in 0.8 mi East 8.1 mph - N/A   Overcast
7:32 AM 57.2 °F 57.2 °F 100% 29.97 in 0.8 mi ESE 8.1 mph - N/A   Overcast
7:53 AM 57.9 °F 57.0 °F 97% 29.98 in 1.5 mi East 4.6 mph - N/A   Overcast
8:00 AM 57.2 °F 57.2 °F 100% 29.98 in 3.0 mi East 6.9 mph - N/A   Overcast
8:30 AM 57.2 °F 57.2 °F 100% 29.99 in 5.0 mi East 3.5 mph - N/A   Overcast
8:53 AM 59.0 °F 57.0 °F 93% 29.99 in 6.0 mi SE 3.5 mph - N/A   Overcast
9:53 AM 60.1 °F 57.0 °F 90% 29.99 in 10.0 mi SSE 5.8 mph - N/A   Overcast
10:53 AM 61.0 °F 57.0 °F 87% 30.01 in 9.0 mi Variable 3.5 mph - N/A   Overcast
11:53 AM 62.1 °F 57.0 °F 84% 30.01 in 10.0 mi SE 8.1 mph - N/A   Overcast
12:21 PM 64.4 °F 57.2 °F 77% 30.00 in 9.0 mi ENE 5.8 mph - N/A   Mostly Cloudy
12:53 PM 66.9 °F 57.0 °F 70% 30.00 in 10.0 mi SSE 8.1 mph - N/A   Overcast
1:53 PM 70.0 °F 59.0 °F 68% 29.98 in 10.0 mi SSE 9.2 mph - N/A   Scattered Clouds
2:53 PM 69.1 °F 59.0 °F 70% 29.95 in 10.0 mi SE 8.1 mph - N/A   Clear
3:53 PM 69.1 °F 59.0 °F 70% 29.93 in 10.0 mi SW 8.1 mph - N/A   Clear
4:53 PM 66.9 °F 57.9 °F 73% 29.92 in 10.0 mi WSW 11.5 mph - N/A   Clear
5:53 PM 64.9 °F 57.9 °F 78% 29.91 in 10.0 mi WSW 10.4 mph - N/A   Clear
6:53 PM 62.1 °F 57.0 °F 84% 29.91 in 10.0 mi WSW 11.5 mph - N/A   Clear
7:53 PM 60.1 °F 55.9 °F 86% 29.91 in 8.0 mi SW 5.8 mph - N/A   Clear
8:00 PM 60.8 °F 55.4 °F 82% 29.91 in 4.0 mi SW 5.8 mph - N/A   Clear
8:53 PM 59.0 °F 55.0 °F 87% 29.93 in 4.0 mi Calm Calm - N/A   Scattered Clouds
9:53 PM 57.9 °F 55.9 °F 93% 29.93 in 6.0 mi East 6.9 mph - N/A   Partly Cloudy
10:06 PM 59.0 °F 57.2 °F 94% 29.92 in 6.0 mi East 6.9 mph - N/A   Mostly Cloudy
10:53 PM 59.0 °F 57.0 °F 93% 29.93 in 6.0 mi East 6.9 mph - N/A   Overcast
11:53 PM 59.0 °F 57.0 °F 93% 29.94 in 5.0 mi East 5.8 mph - N/A   Overcast